[[{"header":{"parameterUnit":"m.s-1","parameterCategory":1,"la1":30.2991,"la2":30.254,"lo1":-89.0895,"lo2":-89.0444,"dy":0.0017,"dx":0.0017,"nx":28,"ny":28,"refTime":"2025-05-18T09:00:00:Z","depth":0,"parameterNumber":2,"parameterNumberName":"U-component_of_WINDS"},"data":[0,0,0,0,0,0,0,0,0,0,0,0,0,0,0,0,0,0,0,0,0,0,0,0,0,0,0,0,0,0,0,0,0,0,0,0,0,0,0,0,0,0,0,0,0,0,0,0,0,0,0,0,0,0,0,0,0,0,-2.0782,-2.0782,0,-2.072,-2.072,-2.0719,-2.0652,-2.0651,-2.065,-2.0649,-2.0584,-2.0584,-2.0583,0,0,0,0,0,0,0,0,0,0,0,0,0,-2.0843,-2.0842,-2.0782,-2.0782,-2.0781,-2.072,-2.072,-2.0719,-2.0652,-2.0651,-2.065,-2.0649,-2.0585,-2.0584,-2.0583,0,0,0,0,0,0,0,0,0,0,0,0,0,-2.0802,-2.0842,-2.0782,-2.074,-2.0736,-2.0721,-2.072,-2.0718,-2.0653,-2.0651,-2.065,-2.0648,-2.0585,-2.0584,-2.0583,-2.0603,0,0,-2.0579,-2.0578,0,0,0,0,0,0,0,0,-2.0805,-2.08,-2.0747,-2.0743,-2.0738,-2.0693,-2.0717,-2.068,-2.0653,-2.0684,-2.0649,-2.0648,-2.0621,-2.0617,-2.0608,-2.06,-2.0597,-2.0579,-2.0578,-2.0577,-2.0577,0,0,0,0,0,0,0,-2.0808,-2.0802,-2.0758,-2.0747,-2.0741,-2.0725,-2.0717,-2.071,-2.0661,-2.0681,-2.0676,-2.067,-2.0619,-2.061,-2.0606,-2.0596,-2.0579,-2.0577,-2.0577,-2.0576,-2.0603,-2.0604,0,0,0,0,0,0,-2.0817,-2.0805,-2.076,-2.0756,-2.0769,-2.0725,-2.0716,-2.0709,-2.0661,-2.0653,-2.0671,-2.0667,-2.0613,-2.0608,-2.0604,-2.0625,-2.0577,-2.0576,-2.0575,-2.0601,-2.0603,-2.0604,0,0,0,0,0,0,-2.0818,-2.0813,-2.0762,-2.0779,-2.0771,-2.0725,-2.0717,-2.0708,-2.0699,-2.0654,-2.0645,-2.0671,-2.0611,-2.0606,-2.0604,-2.0622,-2.0575,-2.0574,-2.0599,-2.0602,-2.0604,-2.0668,0,0,0,0,0,0,-2.082,-2.0814,-2.0822,-2.078,-2.0771,-2.0764,-2.0718,-2.0708,-2.0697,-2.0691,-2.0651,-2.0643,-2.061,-2.0606,-2.0603,-2.0619,-2.0573,-2.0598,-2.06,-2.0603,-2.0664,-2.0672,-2.0679,0,0,0,0,0,-2.0823,-2.0842,-2.0822,-2.0817,-2.0779,-2.0765,-2.076,-2.0721,-2.0699,-2.0706,-2.0677,-2.0645,-2.0621,-2.0607,-2.0602,-2.0619,-2.0596,-2.06,-2.0603,-2.0661,-2.0671,-2.0679,0,0,0,0,0,0,-2.0886,-2.0835,-2.0813,-2.0819,-2.0797,-2.0754,-2.0761,-2.0733,-2.0716,-2.0711,-2.0663,-2.0655,-2.0659,-2.0639,-2.0624,-2.0637,-2.0604,-2.0607,-2.065,-2.0659,-2.0666,-2.0671,-2.0572,0,0,0,0,0,-2.0901,-2.0894,-2.085,-2.086,-2.085,-2.0808,-2.08,-2.0773,-2.0747,-2.0737,-2.0708,-2.0684,-2.0672,-2.0664,-2.065,-2.0661,-2.0652,-2.0671,-2.0678,-2.0684,-2.0687,-2.0692,-2.07,-2.0615,-2.0615,-2.0615,0,0,-2.0931,-2.0903,-2.0901,-2.0872,-2.0851,-2.0845,-2.08,-2.0795,-2.079,-2.0736,-2.0733,-2.0711,-2.0682,-2.0687,-2.0688,-2.067,-2.0709,-2.0689,-2.0694,-2.0693,-2.0696,-2.0705,-2.0712,-2.0618,-2.0617,-2.0617,0,0,-2.0983,-2.0961,-2.0966,-2.0947,-2.0917,-2.0889,-2.0891,-2.0852,-2.0836,-2.0832,-2.0792,-2.0785,-2.0764,-2.0745,-2.0733,-2.0779,-2.0749,-2.0776,-2.0815,-2.0821,-2.0827,-2.0833,-2.085,-2.0856,-2.0779,-2.0779,-2.0779,0,-2.1024,-2.1013,-2.0973,-2.0971,-2.0959,-2.0912,-2.0917,-2.09,-2.0867,-2.086,-2.0841,-2.0815,-2.0791,-2.0792,-2.0804,-2.0795,-2.0796,-2.078,-2.083,-2.0835,-2.084,-2.0855,-2.0861,-2.0782,-2.0782,-2.0782,-2.0781,0,-2.1065,-2.1059,-2.1067,-2.1037,-2.1026,-2.1028,-2.0989,-2.0983,-2.0957,-2.0931,-2.0929,-2.09,-2.0879,-2.0877,-2.0851,-2.0874,-2.0864,-2.0838,-2.0804,-2.0852,-2.0866,-2.0871,-2.0787,-2.0786,-2.0785,-2.0784,0,0,-2.1154,-2.1103,-2.1106,-2.1093,-2.1057,-2.105,-2.1051,-2.1031,-2.1027,-2.1006,-2.1005,-2.099,-2.0966,-2.0952,-2.0923,-2.0929,-2.0968,-2.0902,-2.09,-2.0915,-2.0992,-2.1012,-2.1019,-2.0948,-2.0949,-2.095,-2.0994,0,-2.1199,-2.1196,-2.1161,-2.1168,-2.1162,-2.1118,-2.1118,-2.1096,-2.1072,-2.1063,-2.1037,-2.1027,-2.0996,-2.0987,-2.099,-2.0963,-2.0983,-2.0959,-2.0946,-2.0946,-2.0955,-2.1026,-2.1047,-2.109,-2.1,-2.1,-2.1001,0,-2.1251,-2.1234,-2.1242,-2.1206,-2.1202,-2.1203,-2.1183,-2.1175,-2.115,-2.1132,-2.1118,-2.1086,-2.1084,-2.1053,-2.1049,-2.1034,-2.1027,-2.1013,-2.1013,-2.101,-2.0976,-2.1025,-2.1103,-2.111,-2.1009,-2.1008,-2.1008,0,-2.1315,-2.1294,-2.1296,-2.1286,-2.1244,-2.1246,-2.1229,-2.1202,-2.1193,-2.1176,-2.117,-2.1152,-2.1142,-2.113,-2.1094,-2.1075,-2.1095,-2.1061,-2.108,-2.1081,-2.1086,-2.1086,-2.1164,-2.1082,-2.1082,-2.1082,-2.1082,0,-2.1369,-2.1375,-2.1324,-2.1325,-2.1331,-2.1291,-2.1298,-2.1276,-2.1253,-2.1249,-2.121,-2.1207,-2.1161,-2.1153,-2.1125,-2.1127,-2.1123,-2.1109,-2.1101,-2.1112,-2.1114,-2.1106,-2.1102,-2.1084,-2.1083,-2.1083,-2.1083,0,-2.1442,-2.1408,-2.1407,-2.1368,-2.1359,-2.1365,-2.1332,-2.1331,-2.1306,-2.1302,-2.1299,-2.1259,-2.1248,-2.1212,-2.1191,-2.1173,-2.1182,-2.1168,-2.1191,-2.1186,-2.1208,-2.1207,-2.1284,-2.1292,-2.1205,-2.1206,-2.1207,0,-2.1478,-2.1482,-2.1444,-2.1439,-2.1424,-2.1416,-2.1407,-2.1368,-2.136,-2.1332,-2.1335,-2.1321,-2.1308,-2.1292,-2.1261,-2.1245,-2.1231,-2.1259,-2.1228,-2.1239,-2.1231,-2.1231,-2.1231,-2.1265,-2.1266,-2.1267,-2.1268,0,-2.1547,-2.153,-2.1519,-2.1502,-2.1492,-2.1477,-2.1459,-2.1458,-2.1414,-2.1407,-2.1396,-2.1385,-2.1365,-2.1352,-2.1331,-2.1313,-2.1284,-2.1278,-2.1282,-2.1293,-2.1306,-2.1299,-2.1209,-2.1276,-2.1276,-2.1275,-2.1275,-2.1274,-2.1602,-2.1603,-2.1578,-2.1567,-2.155,-2.1534,-2.1532,-2.1507,-2.1497,-2.1478,-2.1456,-2.1447,-2.1422,-2.1392,-2.1377,-2.1369,-2.1353,-2.1358,-2.136,-2.1361,-2.1367,-2.1308,-2.1365,-2.1365,-2.1365,-2.1365,-2.1364,0,-2.1668,-2.165,-2.164,-2.1617,-2.1609,-2.1583,-2.1562,-2.1557,-2.155,-2.1529,-2.1517,-2.1505,-2.1492,-2.1461,-2.1445,-2.1445,-2.1431,-2.1442,-2.1441,-2.1438,-2.1382,-2.1381,-2.1454,-2.1454,-2.1454,-2.1454,-2.1454,-2.1454,-2.1702,-2.1704,-2.1684,-2.1677,-2.1658,-2.165,-2.1641,-2.1627,-2.161,-2.1598,-2.1588,-2.1568,-2.1543,-2.1525,-2.1512,-2.1504,-2.15,-2.1515,-2.1502,-2.145,-2.1442,-2.1434,-2.1432,-2.1515,-2.1515,-2.1558,-2.1559,-2.1559]},{"header":{"parameterUnit":"m.s-1","parameterCategory":1,"la1":30.2991,"la2":30.254,"lo1":-89.0895,"lo2":-89.0444,"dy":0.0017,"dx":0.0017,"nx":28,"ny":28,"refTime":"2025-05-18T09:00:00:Z","depth":0,"parameterNumber":3,"parameterNumberName":"V-component_of_WINDS"},"data":[0,0,0,0,0,0,0,0,0,0,0,0,0,0,0,0,0,0,0,0,0,0,0,0,0,0,0,0,0,0,0,0,0,0,0,0,0,0,0,0,0,0,0,0,0,0,0,0,0,0,0,0,0,0,0,0,0,0,5.1191,5.1191,0,5.1185,5.1185,5.1185,5.1178,5.1178,5.1177,5.1177,5.1167,5.1166,5.1166,0,0,0,0,0,0,0,0,0,0,0,0,0,5.1194,5.1194,5.1191,5.1191,5.1191,5.1185,5.1185,5.1185,5.1178,5.1178,5.1177,5.1177,5.1167,5.1166,5.1166,0,0,0,0,0,0,0,0,0,0,0,0,0,5.1191,5.1194,5.1191,5.1187,5.1186,5.1185,5.1185,5.1185,5.1178,5.1178,5.1177,5.1177,5.1167,5.1166,5.1166,5.1167,0,0,5.1165,5.1165,0,0,0,0,0,0,0,0,5.1191,5.119,5.1188,5.1187,5.1187,5.1182,5.1182,5.1179,5.1178,5.1181,5.1177,5.1177,5.1172,5.1171,5.117,5.1167,5.1166,5.1165,5.1165,5.1165,5.1165,0,0,0,0,0,0,0,5.1191,5.1191,5.1189,5.1188,5.1187,5.1184,5.1184,5.1181,5.1177,5.1181,5.118,5.118,5.1171,5.117,5.117,5.1166,5.1165,5.1165,5.1165,5.1165,5.1165,5.1166,0,0,0,0,0,0,5.1192,5.1191,5.1189,5.1189,5.1189,5.1184,5.1184,5.1184,5.1177,5.1176,5.118,5.1179,5.1171,5.117,5.1169,5.1171,5.1165,5.1165,5.1164,5.1165,5.1165,5.1166,0,0,0,0,0,0,5.1192,5.1192,5.1189,5.119,5.1189,5.1185,5.1185,5.1184,5.1183,5.1177,5.1175,5.118,5.1171,5.117,5.1169,5.1171,5.1165,5.1164,5.1165,5.1165,5.1166,5.1175,0,0,0,0,0,0,5.1193,5.1192,5.1193,5.119,5.1189,5.119,5.1185,5.1184,5.1183,5.1182,5.1176,5.1175,5.117,5.1169,5.1168,5.117,5.1164,5.1165,5.1165,5.1166,5.1174,5.1175,5.1176,0,0,0,0,0,5.1193,5.1195,5.1193,5.1193,5.119,5.119,5.1189,5.1185,5.1183,5.1183,5.118,5.1175,5.1171,5.1169,5.1168,5.117,5.1165,5.1165,5.1165,5.1174,5.1175,5.1176,0,0,0,0,0,0,5.1196,5.1194,5.1193,5.1194,5.1192,5.1188,5.1189,5.1186,5.1184,5.1183,5.1177,5.1176,5.1176,5.1173,5.1171,5.1172,5.1167,5.1167,5.1174,5.1175,5.1176,5.1176,5.1164,0,0,0,0,0,5.1198,5.1199,5.1196,5.1197,5.1197,5.1193,5.1193,5.119,5.1188,5.1186,5.1182,5.1179,5.1177,5.1176,5.1173,5.1174,5.1173,5.1175,5.1176,5.1177,5.1177,5.1178,5.1179,5.1167,5.1167,5.1167,0,0,5.12,5.1199,5.1199,5.1198,5.1197,5.1197,5.1192,5.1192,5.1192,5.1186,5.1185,5.1183,5.1178,5.1179,5.1178,5.1176,5.118,5.1177,5.1178,5.1178,5.1178,5.1179,5.118,5.1167,5.1167,5.1167,0,0,5.1204,5.1203,5.1205,5.1204,5.1203,5.1201,5.1201,5.1198,5.1197,5.1197,5.1192,5.1192,5.1188,5.1186,5.1184,5.119,5.1186,5.1189,5.1194,5.1195,5.1196,5.1197,5.12,5.12,5.1189,5.1189,5.119,0,5.1206,5.1207,5.1205,5.1206,5.1206,5.1203,5.1204,5.1203,5.12,5.12,5.1198,5.1195,5.1191,5.1192,5.1194,5.1192,5.1192,5.1189,5.1197,5.1197,5.1198,5.12,5.1201,5.119,5.119,5.119,5.119,0,5.121,5.1211,5.1213,5.1213,5.1213,5.1214,5.1212,5.1212,5.121,5.1208,5.1208,5.1205,5.1203,5.1202,5.1199,5.1203,5.1201,5.1198,5.1193,5.12,5.1202,5.1203,5.1191,5.1191,5.119,5.119,0,0,5.1214,5.1216,5.1216,5.1217,5.1216,5.1216,5.1218,5.1217,5.1218,5.1216,5.1217,5.1216,5.1213,5.1212,5.1208,5.121,5.1215,5.1206,5.1206,5.1208,5.1219,5.1222,5.1223,5.1213,5.1213,5.1213,5.122,0,5.1218,5.1222,5.1221,5.1224,5.1226,5.1224,5.1225,5.1224,5.1223,5.1223,5.1221,5.122,5.1217,5.1216,5.1217,5.1215,5.1218,5.1214,5.1213,5.1213,5.1214,5.1224,5.1226,5.1233,5.1221,5.1221,5.1221,0,5.1223,5.1224,5.1228,5.1229,5.123,5.1231,5.1232,5.1232,5.1232,5.1231,5.123,5.1227,5.1228,5.1225,5.1226,5.1223,5.1223,5.1222,5.1222,5.1221,5.1217,5.1224,5.1234,5.1235,5.1222,5.1222,5.1222,0,5.1226,5.1229,5.1232,5.1233,5.1234,5.1235,5.1235,5.1235,5.1235,5.1235,5.1236,5.1235,5.1235,5.1234,5.1231,5.1229,5.1233,5.1229,5.1232,5.1232,5.1232,5.1232,5.1243,5.1232,5.1232,5.1232,5.1232,0,5.123,5.1233,5.1234,5.1236,5.1239,5.1238,5.1241,5.1241,5.1241,5.1242,5.124,5.1241,5.1237,5.1238,5.1235,5.1237,5.1237,5.1236,5.1235,5.1236,5.1236,5.1235,5.1234,5.1233,5.1232,5.1232,5.1232,0,5.1234,5.1235,5.1239,5.124,5.1241,5.1243,5.1244,5.1246,5.1245,5.1247,5.1247,5.1246,5.1247,5.1245,5.1244,5.1243,5.1246,5.1244,5.1246,5.1246,5.1249,5.1249,5.126,5.1261,5.125,5.125,5.125,0,5.1237,5.1239,5.1242,5.1244,5.1245,5.1247,5.1249,5.1248,5.1249,5.125,5.1252,5.1253,5.1254,5.1255,5.1253,5.1254,5.1252,5.1256,5.1252,5.1253,5.1252,5.1252,5.1253,5.1256,5.1257,5.1257,5.1257,0,5.1241,5.1242,5.1245,5.1248,5.1251,5.1253,5.1254,5.1256,5.1255,5.1257,5.1259,5.126,5.1261,5.1262,5.1263,5.1262,5.1259,5.1259,5.1259,5.126,5.1261,5.1261,5.1249,5.1258,5.1258,5.1258,5.1258,5.1258,5.1245,5.1247,5.125,5.1254,5.1256,5.1258,5.126,5.1261,5.1263,5.1266,5.1265,5.1268,5.1268,5.1269,5.1269,5.127,5.1268,5.1269,5.1269,5.1269,5.127,5.1262,5.127,5.127,5.127,5.127,5.127,0,5.1249,5.1252,5.1255,5.1259,5.1262,5.1262,5.1264,5.1266,5.1269,5.1271,5.1273,5.1276,5.1277,5.1277,5.1278,5.128,5.1279,5.128,5.128,5.128,5.1272,5.1271,5.1281,5.1281,5.1281,5.1281,5.1281,5.1281,5.1252,5.1257,5.1259,5.1265,5.1267,5.1271,5.1272,5.1274,5.1276,5.128,5.1282,5.1283,5.1284,5.1285,5.1287,5.1287,5.1287,5.1289,5.1289,5.1281,5.128,5.1279,5.1278,5.1289,5.1289,5.1296,5.1296,5.1296]}]]